Location: Allington
(51.2833°N, 0.5167°E)
Time: 15:44:28
(UTC+00:00)

Daily predictions for brighter satellites

Satellite Brightness Start Highest point End
(mag) Time Altitude Azimuth Time Altitude Azimuth Time Altitude Azimuth
USA 229 DEB 4.3 18:07:36 10° NW 18:14:33 52° NNE 18:22:03 10° ESE
USA 229 4.3 18:07:42 10° NW 18:14:39 52° NNE 18:22:09 10° ESE
Cosmos 1975 3.5 18:15:57 10° SSE 18:19:36 33° E 18:23:16 10° NNE
NOSS 2-2 (C) 4.3 18:16:34 10° NW 18:20:57 53° NE 18:27:01 10° ESE
HJ-1C 3.5 18:18:19 10° SE 18:21:20 46° ENE 18:24:21 10° N
MINOTAUR 4 R/B 4.5 18:19:02 10° N 18:22:32 66° WNW 18:25:59 10° SSW
SKYMED 2 3.7 18:20:57 10° NNE 18:25:20 87° WNW 18:29:41 10° SSW
COBE Rocket 3.9 18:20:33 10° SSE 18:25:30 67° ENE 18:30:18 10° N
Resurs 01 Rocket 3.7 18:24:25 10° ENE 18:25:35 11° NE 18:26:44 10° NE
PSLV R/B 4.0 18:21:53 10° S 18:25:37 71° WSW 18:29:20 10° NNW
Cosmos 407 Rocket 3.5 18:21:49 10° S 18:26:53 62° ESE 18:32:02 10° NNE
Cosmos 2263 Rocket 3.4 18:22:54 10° NNW 18:27:37 26° NE 18:32:18 10° E
Cosmos 540 Rocket 4.2 18:24:52 10° NNW 18:29:35 35° NE 18:34:15 10° ESE
Cosmos 1763 Rocket 3.6 18:26:02 10° NNW 18:31:01 52° ENE 18:35:57 10° SE
YAOGAN 1 2.5 18:28:20 10° SSE 18:32:38 75° ENE 18:36:59 10° N
SJ-6B 3.7 18:37:45 10° SE 18:40:55 27° ENE 18:44:08 10° N
NOSS 3-1 (A) 4.1 18:34:56 10° NW 18:42:05 78° NE 18:50:42 10° SE
ASTEX 1 3.4 18:39:24 10° N 18:44:22 76° E 18:49:21 10° S
Cosmos 1626 2.0 18:41:25 10° N 18:45:03 66° ENE 18:48:39 10° SSE
Okean-O 3.4 18:41:38 10° SE 18:45:34 32° ENE 18:49:31 10° N
Cosmos 1697 Rocket 3.3 18:41:42 10° S 18:46:39 33° ESE 18:51:38 10° NE
OBJECT-B 1.2 18:44:26 10° SE 18:46:48 30° ENE 18:49:17 10° N
Cosmos 1869 Rocket 3.5 18:43:39 10° S 18:48:06 78° E 18:52:36 10° NNE
Cosmos 1242 Rocket 3.6 18:45:20 10° SE 18:48:13 23° E 18:51:07 10° NE
CSL-04 Debris 4.4 18:46:48 10° SE 18:52:01 50° ENE 18:57:13 10° N
Tsikada Rocket 4.3 18:50:51 10° SSW 18:57:16 79° W 19:03:44 10° N
Lacrosse 5 3.3 18:52:47 10° WNW 18:57:20 34° SW 19:01:53 10° SSE
USA 215 3.7 18:53:05 10° ENE 18:59:29 58° N 19:05:52 10° W
Cosmos 676 Rocket 4.1 18:55:27 10° S 19:00:26 49° ESE 19:05:26 10° NNE
NOSS 2-2 (D) 4.1 18:56:47 10° NW 19:01:27 86° NE 19:07:45 11° SE
Cosmos 2227 Rocket 2.3 18:56:06 10° NNW 19:01:47 80° WSW 19:07:26 10° SSE
CZ-4C R/B 4.2 18:55:26 10° NW 19:02:13 43° WSW 19:10:04 10° S
Resurs 1-3 4.2 18:59:48 13° SE 19:03:17 36° ENE 19:07:19 10° N
CZ-4B R/B 3.9 18:58:38 10° S 19:03:51 56° W 19:09:12 10° NNW
deb Chang Zheng 4 4.4 19:03:09 18° ESE 19:05:24 29° ENE 19:08:59 10° N
Cosmos 1378 Rocket 4.0 19:03:04 10° N 19:07:17 41° ENE 19:10:41 14° SE
KORONAS-FOTON 4.3 19:03:42 10° NNW 19:07:34 63° W 19:11:24 10° S
SL-4 R/B 2.2 19:04:29 10° W 19:08:57 89° S 19:12:26 18° E
Cosmos 1707 4.2 19:09:23 10° NNW 19:12:56 39° W 19:16:28 10° SSW
Cosmos 1674 3.3 19:09:58 10° NNW 19:13:41 56° W 19:17:21 10° S
Cosmos 2297 Rocket 3.4 19:11:34 10° NW 19:16:55 43° WSW 19:22:13 10° S
Landsat 5 3.8 19:13:03 10° NNE 19:17:26 52° E 19:21:49 10° S
Cosmos 2369 4.3 19:12:28 10° SSE 19:17:30 33° ESE 19:22:32 10° NE
Cosmos 1733 Rocket 3.1 19:13:23 10° S 19:17:42 57° E 19:22:05 10° NNE
Okean 2 3.8 19:18:49 10° NNW 19:22:58 66° W 19:27:04 10° S
ISS -3.8 19:20:25 10° W 19:23:48 82° N 19:25:11 33° E
Cosmos 1733 3.1 19:20:20 10° S 19:24:03 63° E 19:27:48 10° NNE
Cosmos 1980 Rocket 2.7 19:19:06 10° S 19:24:06 33° ESE 19:29:05 10° NE
SL-14 R/B 3.2 19:21:48 10° N 19:25:43 70° ENE 19:28:41 17° SSE
CSL-04 Rocket 3.6 19:22:58 10° SSE 19:28:16 82° ENE 19:33:41 10° NNW
Okean O Rocket 3.1 19:24:29 10° SSW 19:28:32 38° W 19:32:38 10° NNW
USA 186 1.1 19:27:57 36° SSE 19:28:54 87° ENE 19:31:38 10° NNW
Nadezhda 4 Rocket 4.2 19:26:10 10° SSE 19:32:14 51° E 19:38:20 10° NNE
Cosmos 468 Rocket 4.4 19:28:24 10° NNW 19:33:29 63° WSW 19:38:33 10° S
CZ-4 R/B 3.0 19:31:12 10° SSW 19:35:02 36° W 19:38:56 10° NNW
H-2A R/B 2.7 19:34:02 33° ESE 19:35:25 46° ENE 19:39:15 10° N
Cosmos 1656 4.2 19:30:03 10° SW 19:35:35 61° NW 19:41:14 10° NNE
Cosmos 1850 Rocket 4.2 19:39:20 10° S 19:44:17 47° ESE 19:49:19 10° NE
Cosmos 2219 4.1 19:39:37 10° NW 19:45:07 48° WSW 19:50:37 10° S
IRS-1C Rocket 4.1 19:40:37 12° SSE 19:45:32 83° WSW 19:50:51 10° NNW
CZ-4C R/B 4.3 19:42:57 10° NNE 19:44:22 23° NE 19:44:22 23° NE
Cosmos 1726 1.9 19:46:22 36° SSE 19:47:41 65° E 19:51:20 10° NNE
Cosmos 2360 4.1 19:43:15 10° SSW 19:48:58 87° ESE 19:54:45 10° NNE
SPOT 5 4.4 19:49:18 21° ENE 19:49:38 21° ENE 19:53:21 10° N
Ariane Rocket 3.7 19:48:39 33° E 19:49:45 36° ENE 19:54:23 10° N
IRIDIUM 104 4.3 19:44:53 10° S 19:50:06 89° ESE 19:55:22 10° N
Cosmos 2292 Rocket 4.3 19:46:55 10° SSE 19:53:12 51° E 19:57:58 10° NNE
Cosmos 2227 4.5 19:48:05 10° NNW 19:53:35 50° NE 19:55:25 36° ESE
Cosmos 1805 3.6 19:50:36 10° SSW 19:54:27 66° WNW 19:58:20 10° N
Landsat 7 3.8 19:51:58 23° SSE 19:54:58 85° WSW 19:59:44 10° NNW
Cosmos 1908 Rocket 3.6 19:55:32 49° ESE 19:55:55 50° E 20:00:08 10° NNE
SL-19 R/B 4.5 19:50:44 10° NNE 19:56:47 70° ESE 20:03:21 10° S
JB-3 4.3 19:52:47 10° NNE 19:56:56 85° ESE 20:00:55 10° SSW
Cosmos 1844 Rocket 3.9 19:52:11 10° NNW 19:56:58 27° NE 19:58:31 24° ENE
Cosmos 841 Rocket 3.5 19:53:57 10° NNW 19:59:10 77° WSW 20:01:52 29° SSE
IRIDIUM 114 4.4 19:54:04 10° S 19:59:17 78° W 20:04:33 10° N
Cosmos 1766 3.1 19:58:45 53° SSE 19:59:31 71° E 20:03:26 10° NNE
NOSS 7 (H) 4.3 19:56:33 10° NW 19:59:39 77° NE 19:59:46 76° ENE
Resurs 01 Rocket 1.6 20:00:20 51° ESE 20:01:12 64° ENE 20:05:36 10° N
ATLAS 2AS CENTAUR R/B 4.2 19:54:28 10° W 20:01:23 36° NNW 20:07:58 10° NE
USA 281 3.8 19:59:20 31° E 20:01:45 42° NE 20:07:50 10° NNW
IGS 5A 4.3 19:58:53 14° S 20:02:17 48° W 20:06:20 10° NNW
Cosmos 1092 Rocket 4.2 19:59:44 30° SSE 20:02:36 50° E 20:08:38 10° NNE
Terra 3.5 20:04:55 19° NE 20:04:55 19° NE 20:07:51 10° NNE
USA 229 DEB 4.3 19:58:38 10° NW 20:05:50 62° SW 20:10:50 23° SSE
USA 229 4.3 19:58:43 10° NW 20:05:56 62° SW 20:10:54 24° SSE
Cosmos 2082 4.2 20:02:45 10° NW 20:08:22 57° WSW 20:11:51 23° S
ERS-1 Rocket 4.2 20:08:44 25° ENE 20:08:44 25° ENE 20:12:43 10° N
Cosmos 1741 Rocket 3.9 20:04:06 10° SSW 20:09:22 70° ESE 20:14:38 10° NNE
Meteor 2-21 4.5 20:05:10 10° SSW 20:11:13 79° WNW 20:17:18 10° N
Cosmos 1674 Rocket 4.4 20:07:43 10° NNW 20:11:56 48° W 20:14:55 18° SSW
Cosmos 2263 Rocket 2.2 20:06:32 10° NNW 20:12:15 85° WSW 20:14:22 41° SSE
Spot 2 Rocket 4.5 20:14:17 30° ENE 20:14:17 30° ENE 20:18:28 10° N
OBJECT-B 3.5 20:15:58 10° WSW 20:17:17 13° W 20:18:40 10° WNW
SPOT 1/Viking Rocket 3.4 20:18:05 47° SSE 20:19:37 88° ENE 20:24:49 10° NNW
MetOp-A 3.7 20:20:28 52° SW 20:21:01 58° WSW 20:24:49 10° NNW
MOS 1 4.2 20:19:25 40° SSE 20:21:36 88° WSW 20:27:19 10° NNW
SPOT 3 Rocket 3.9 20:21:32 45° ENE 20:21:37 45° ENE 20:26:32 10° N
Okean-O 4.1 20:18:27 13° SSW 20:22:00 35° W 20:26:05 10° NNW
Cosmos 1242 Rocket 4.5 20:19:29 10° SW 20:22:40 29° WNW 20:25:51 10° N
Cosmos 1814 Rocket 4.0 20:24:28 10° NNW 20:29:48 81° WSW 20:30:47 60° S
Cosmos 1697 Rocket 3.5 20:24:58 10° SW 20:30:26 51° NW 20:35:57 10° NNE
Spot 2 4.3 20:32:09 56° WSW 20:32:27 57° WSW 20:36:33 10° NNW
Cosmos 1975 Rocket 3.3 20:28:25 10° N 20:32:19 62° NNE 20:32:19 62° NNE
Cosmos 1627 Rocket 4.3 20:32:34 49° SSE 20:34:15 73° E 20:40:22 10° NNE
Timation 2 Rocket 4.4 20:31:37 10° NW 20:38:02 58° WSW 20:40:24 37° S
USA 215 3.6 20:39:29 36° ENE 20:42:04 59° N 20:48:28 10° WNW
Cosmos 2285 Rocket 4.1 20:37:35 10° NNW 20:43:54 71° WSW 20:45:41 48° S
Meteor 1-24 Rocket 3.6 20:40:54 10° NNW 20:46:14 74° W 20:46:55 64° SSW
Cosmos 1025 Rocket 3.6 20:42:46 10° N 20:46:06 54° NNW 20:46:06 54° NNW
SL-4 R/B 2.6 20:43:58 10° W 20:47:50 63° W 20:47:50 63° W
Meteor 1-22 Rocket 4.0 20:49:50 82° SSW 20:50:06 89° W 20:55:38 10° NNE
CARTOSAT-1 4.1 20:53:35 56° NW 20:53:35 56° NW 20:57:04 10° NNW
Meteor 2-5 Rocket 4.1 20:47:42 10° NNW 20:53:12 59° W 20:54:28 47° SW
Meteor 1-15 Rocket 4.5 20:50:13 25° SSW 20:53:31 65° WNW 20:59:04 10° N
MetOp-B 4.1 20:55:19 72° SW 20:55:39 75° WSW 21:01:03 10° NNW
Cosmos 489 Rocket 4.5 20:53:26 10° SSW 20:59:49 82° WNW 21:06:12 10° NNE
ISS -0.9 20:57:11 10° W 20:58:03 17° W 20:58:03 17° W
Cosmos 2369 4.4 20:55:51 10° SW 21:01:27 54° NW 21:07:04 10° NNE
USA 245 4.4 21:01:50 73° SSE 21:02:32 90° ENE 21:08:45 10° NNW
Cosmos 1553 Rocket 3.9 21:01:16 10° N 21:07:34 89° W 21:07:56 81° S
Cosmos 1980 Rocket 2.9 21:02:25 10° SW 21:07:55 51° NW 21:13:25 10° NNE
Cosmos 2278 3.7 21:11:11 77° NW 21:11:11 77° NW 21:16:47 10° NNE
Cosmos 2026 Rocket 4.2 21:10:18 45° SW 21:12:04 65° WNW 21:18:08 10° N
SL-16 R/B 4.0 21:21:54 20° NE 21:21:54 20° NE 21:23:36 10° NE
SPOT 5 3.7 21:28:31 51° NW 21:28:31 51° NW 21:32:16 10° NNW
Ariane Rocket 4.1 21:28:50 38° W 21:28:50 38° W 21:33:27 10° NNW
Cosmos 2278 Rocket 3.9 21:25:24 10° NNW 21:29:42 23° NE 21:29:42 23° NE
H-2A R/B 4.2 21:29:02 10° N 21:30:32 21° N 21:30:32 21° N
SeaSat 1 3.8 21:38:40 33° N 21:38:40 33° N 21:41:45 10° NNW
Resurs 01 Rocket 4.0 21:37:53 17° W 21:38:08 18° W 21:41:07 10° NW
ADEOS Rocket 4.2 21:41:35 27° NNE 21:41:35 27° NNE 21:44:49 10° N
Cosmos 1844 Rocket 3.3 21:35:47 10° NNW 21:40:10 54° NW 21:40:10 54° NW
Terra 3.3 21:43:48 35° NNW 21:43:48 35° NNW 21:46:34 10° NNW
Cosmos 1844 4.4 21:38:10 10° NNW 21:42:15 50° NW 21:42:15 50° NW
USA 281 3.5 21:46:13 56° WSW 21:46:13 56° WSW 21:52:34 10° NNW
ERS-1 Rocket 4.2 21:48:43 39° NW 21:48:43 39° NW 21:52:05 10° NNW
ATLAS 2AS CENTAUR R/B 4.2 21:47:45 10° NW 21:54:17 32° N 21:57:17 24° NE
Cosmos 2263 Rocket 4.4 21:51:55 10° WNW 21:55:20 16° W 21:56:04 16° WSW
NOSS 3-4 (A) 4.2 21:59:14 10° NW 22:05:21 55° NNE 22:05:21 55° NNE
NOSS 3-4 (C) 4.2 21:59:21 10° NW 22:05:27 54° NNE 22:05:27 54° NNE
Cosmos 1943 Rocket 4.3 22:04:24 10° N 22:08:01 17° NNE 22:08:01 17° NNE
Cosmos 2360 Rocket 4.3 22:21:00 18° NNE 22:21:00 18° NNE 22:22:26 10° NNE
USA 215 3.8 22:26:50 51° WNW 22:26:50 51° WNW 22:31:32 10° WNW
Cosmos 2322 Rocket 3.9 22:41:48 28° N 22:41:48 28° N 22:44:34 10° NNE
SL-16 R/B 4.0 23:03:44 28° NNW 23:03:44 28° NNW 23:07:32 10° NNE
Cosmos 2278 Rocket 4.0 23:09:06 10° NNW 23:11:31 26° NNW 23:11:31 26° NNW
Cosmos 2333 Rocket 4.1 23:20:53 24° NNE 23:20:53 24° NNE 23:23:10 10° NNE
Cosmos 2369 Rocket 4.2 23:29:00 10° NNW 23:32:41 23° NNE 23:32:41 23° NNE
Cosmos 2344 4.4 23:46:08 39° NE 23:46:08 39° NE 23:50:48 10° NE
Cosmos 2219 Rocket 4.1 23:47:35 25° NNE 23:47:35 25° NNE 23:49:59 10° NNE
ATLAS 2AS CENTAUR R/B 3.7 23:39:32 10° NW 23:44:40 44° NNW 23:44:40 44° NNW
Cosmos 1943 Rocket 4.2 23:47:32 10° NNW 23:49:31 22° NNW 23:49:31 22° NNW
Cosmos 2237 Rocket 4.4 23:57:59 19° NE 23:57:59 19° NE 23:59:35 10° NE
